Regional Weather Roundup
Issued by NWS

Home | Current Version | Previous Version | Graphics & Text | Print | Product List | Glossary On
Versions: 1 2 3 4 5 6 7 8 9 10 11 12 13 14 15 16 17 18 19 20 21 22 23 24 25 26 27 28 29 30 31 32 33 34 35 36 37 38 39 40 41 42 43 44 45 46 47 48 49 50
096
ASUS45 KTFX 231710
RWRMT
MONTANA REGIONAL WEATHER ROUNDUP
NATIONAL WEATHER SERVICE GREAT FALLS MT
1100 AM MDT FRI JUN 23 2017

NOTE: "FAIR" INDICATES FEW OR NO CLOUDS BELOW 12000 FEET WITH NO
SIGNIFICANT WEATHER AND/OR OBSTRUCTIONS TO VISIBILITY.

MTZ001>007-043-231800-
WEST OF THE DIVIDE

CITY           SKY/WX    TMP DP  RH WIND       PRES   REMARKS
KALISPELL      MOSUNNY   64  40  41 SE5       30.25F
MISSOULA       SUNNY     61  38  42 VRB3      30.27F
BUTTE          SUNNY     60  27  28 MISG      30.31F
MULLAN PASS    SUNNY     56  32  40 CALM      30.32F
ANACONDA         N/A     59  32  36 N6        30.29F
DEER LODGE       N/A     59  34  38 CALM      30.32F
EUREKA           N/A     63  39  42 MISG      30.26F
HAMILTON         N/A     61  36  39 CALM      30.27F
$$

MTZ008-052>055-231800-
SOUTHWEST MONTANA

CITY           SKY/WX    TMP DP  RH WIND       PRES   REMARKS
BOZEMAN        SUNNY     60  35  39 VRB3      30.30F
DILLON         SUNNY     59  36  42 NW6       30.30F
W YELLOWSTONE  SUNNY     55  23  28 VRB6G12   30.32F
ENNIS          SUNNY     59  34  38 N6G12     30.35F
THREE FORKS      N/A     61  35  37 E1        30.26F
$$

MTZ009-010-012-014-046-048-049-054-231800-
EAST SLOPES AND CENTRAL MONTANA

CITY           SKY/WX    TMP DP  RH WIND       PRES   REMARKS
CUT BANK       MOSUNNY   58  38  47 VRB3      30.30F
GREAT FALLS    SUNNY     61  33  35 E6        30.31S
MALMSTROM AFB  SUNNY     60  37  43 NE6       30.30F
HELENA         SUNNY     63  37  38 E7        30.29F
CHOTEAU          N/A     59  39  47 E9        30.32F
$$

MTZ011-013-016-021-045-047-050-051-231800-
NORTH CENTRAL MONTANA

CITY           SKY/WX    TMP DP  RH WIND       PRES   REMARKS
HAVRE          PTSUNNY   63  35  35 W10       30.27F
LEWISTOWN      MOSUNNY   57  34  41 NW13      30.31F
N BAR RANCH      N/A     57  34  41 N10G20    30.32F
CHINOOK          N/A     63  34  34 W10G24    30.26S
FORT BENTON      N/A     63  37  39 MISG      30.31F
$$

MTZ017>020-022>027-061-062-231800-
NORTHEAST MONTANA

CITY           SKY/WX    TMP DP  RH WIND       PRES   REMARKS
GLASGOW        MOSUNNY   61  31  32 NW18G29   30.21F
JORDAN           N/A     63  33  32 NW18G26   30.25
SIDNEY         PTSUNNY   61  32  33 NW21G30   30.16S
WOLF POINT     PTSUNNY   63  33  32 NW21G29   30.19F
MALTA          MOSUNNY   63  32  31 NW18G25   30.24F
PLENTYWOOD       N/A     57  34  41 NW28G40   30.12S
POPLAR           N/A     59  32  36 NW17G24   30.18F
$$

MTZ028>42-056>058-231800-
SOUTHCENTRAL AND SOUTHEAST MONTANA

CITY           SKY/WX    TMP DP  RH WIND       PRES   REMARKS
BAKER          PTSUNNY   59  31  34 NW22G33   30.21S
BILLINGS       MOSUNNY   60  37  42 CALM      30.28F
LIVINGSTON     SUNNY     61  33  35 E5        30.29F
MILES CITY     SUNNY     63  30  28 NW14G29   30.24F
BIG TIMBER     SUNNY     59  34  38 VRB5      30.31F
FORSYTH          N/A     59  32  36 NW13G24   30.25F
$$

REGIONAL REPORTS...DAKOTAS

CITY           SKY/WX    TMP DP  RH WIND       PRES   REMARKS
WILLISTON      MOSUNNY   62  34  35 NW30G38   30.13S
MINOT          PTSUNNY   61  37  41 W24G36    30.03R
DICKINSON      MOSUNNY   59  31  34 NW22G37   30.12S
BEACH          PTSUNNY   57  32  38 NW21G32   30.22S
CROSBY           N/A     57  36  44 NW25G35   30.10S
TIOGA          PTSUNNY   55  37  50 NW29      30.10F
WATFORD CITY   PTSUNNY   57  37  47 NW21G30   30.12F
BISMARCK       PTSUNNY   61  37  41 NW22G36   30.07R
GRAND FORKS    LGT RAIN  59  52  77 N14       29.88R
FARGO          CLOUDY    63  50  62 NW18      29.89R
BUFFALO SD       N/A     61  31  32 NW31G43   30.11S
RAPID CITY     SUNNY     63  37  38 N28G33    30.19F
$$

REGIONAL REPORTS...WYOMING/IDAHO/WASHINGTON

CITY           SKY/WX    TMP DP  RH WIND       PRES   REMARKS
GILLETTE       SUNNY     60  32  34 NW18G26   30.25F
SHERIDAN       SUNNY     63  36  36 NW16G25   30.28F
BUFFALO WY     SUNNY     59  33  37 N21G35    30.28F
CODY           SUNNY     59  24  26 E6        30.31F
YELLOWSTONE LA   N/A     49  32  52 E5        30.36F
IDAHO FALLS    SUNNY     66  36  32 N13       30.26F
SALMON         SUNNY     61  34  36 N5        30.27F
BOISE          SUNNY     68  36  30 W7        30.20F
SPOKANE        SUNNY     70  34  26 VRB6      30.25F
$$

REGIONAL REPORTS...ALBERTA

CITY           SKY/WX    TMP DP  RH WIND       PRES   REMARKS
EDMONTON       MOSUNNY   63  48  59 NW8       30.20S
CALGARY        MOSUNNY   61  32  33 N15       30.29F
LETHBRIDGE     MOSUNNY   59  39  47 W13G20    30.29F
MEDICINE HAT   PTSUNNY   61  39  44 NW13G21   30.24F
WATERTON GATE    N/A     57  41  54 NE7         N/A
CARDSTON         N/A     61  39  44 SW3         N/A
MILK RIVER       N/A     63  41  45 N7          N/A
$$

REGIONAL REPORTS...SASKATCHEWAN

CITY           SKY/WX    TMP DP  RH WIND       PRES   REMARKS
SWIFT CURRENT  MOSUNNY   55  43  62 NW17G28   30.18F
REGINA         PTSUNNY   54  37  54 NW25G37   30.12R
SASKATOON      PTSUNNY   57  36  44 NW20G30   30.13F
VAL MARIE        N/A     59  34  38 N21G26      N/A
ROCKGLEN         N/A     54  34  47 NW17G24     N/A
$$




USA.gov is the U.S. government's official web portal to all federal, state and local government web resources and services.